Skip to main content Skip to accessibility
This website is not compatible with your web browser. You should install a newer browser. If you live in Jersey and need help upgrading call the States of Jersey web team on 440099.
Homegov.je

Information and public services for the Island of Jersey

L'înformâtion et les sèrvices publyis pouor I'Île dé Jèrri

  • Choose the service you want to log in to:

  • gov.je

    Update your notification preferences

  • one.gov.je

    Access government services

  • CAESAR

    Clear goods through customs or claim relief

  • Talentlink

    View or update your States of Jersey job application

CI Airfield TAFs

JERSEY - EGJJ

EGJJ 170157Z 1703/1712 32011KT 9999 FEW018 SCT035 TEMPO 1703/1709 32012G22KT=

GUERNSEY - EGJB

EGJB 170157Z 1703/1712 33012KT 9999 FEW018 SCT035 TEMPO 1703/1709 33015G25KT=

ALDERNEY - EGJA

EGJA 161921Z 1619/1700 CNL=

​Apologies to the disruption to normal service. Commercial Aviation Services are available from the Jersey Met Forecaster 01534 448765.

Back to top
rating button